Location: Rainwater Observatory
(33.2833°N, 89.3833°W)
Time: 07:08:11
(UTC-05:00)

Daily predictions for brighter satellites

Satellite Brightness Start Highest point End
(mag) Time Altitude Azimuth Time Altitude Azimuth Time Altitude Azimuth
Atlas Centaur 2 3.3 19:45:26 10° W 19:53:58 69° S 20:01:47 10° ESE
ATLAS 2AS CENTAUR R/B 3.1 19:48:51 10° S 19:56:07 57° ESE 20:03:56 10° NE
Intercosmos 25 Rocket 4.1 19:54:55 10° NNW 19:57:58 49° W 20:01:32 10° S
Cosmos 2026 Rocket 4.2 19:52:10 10° S 19:58:31 87° W 20:04:55 10° N
SL-16 R/B 2.2 19:57:55 10° SSW 20:03:35 86° ESE 20:09:16 10° NNE
Iridium 30 4.4 20:01:01 10° S 20:04:16 83° E 20:08:08 10° N
Cosmos 1441 Rocket 4.4 20:01:41 10° NNW 20:05:16 45° W 20:08:53 10° SSW
NOSS 2-3 (E) 4.0 20:02:29 10° SW 20:07:02 78° WNW 20:12:11 10° NNE
Meteor 1-11 Rocket 3.8 20:05:48 10° S 20:11:33 59° E 20:17:09 10° NNE
FREGAT/IRIS 4.0 20:10:14 10° S 20:13:06 41° W 20:16:01 10° NNW
GPS 2-05 Rocket1 2.7 20:11:02 10° WNW 20:14:29 82° NNE 20:17:20 14° E
Okean 2 Rocket 4.5 20:11:56 10° SSW 20:16:13 44° W 20:20:33 10° N
Cosmos 2322 4.4 20:12:14 10° SSE 20:17:10 32° ESE 20:22:07 10° NE
SJ-6B 3.2 20:13:44 10° S 20:17:46 70° W 20:21:53 10° NNW
Delta 2 Rocket 3.3 20:14:26 10° W 20:18:11 77° N 20:22:27 10° ENE
Cosmos 2360 Rocket 2.5 20:16:00 10° S 20:21:18 44° ESE 20:26:37 10° NE
Cosmos 44 Rocket 4.4 20:19:18 10° NW 20:23:48 43° WSW 20:28:23 10° S
SeaSat 1 2.9 20:20:09 10° NE 20:24:44 37° ESE 20:29:16 10° S
HJ-1C 4.3 20:23:34 10° S 20:26:54 52° W 20:30:14 10° NNW
COSMOS 2428 3.8 20:26:08 10° SSE 20:30:22 21° E 20:34:34 10° NE
Cosmos 1850 Rocket 4.1 20:25:11 10° N 20:30:27 60° ENE 20:35:25 11° SSE
Meteosat 1 Rocket2 3.8 20:30:32 10° WSW 20:34:49 48° S 20:38:59 19° ESE
Resurs 1-3 3.5 20:31:50 10° SSE 20:36:10 71° ENE 20:40:33 10° N
Meteor 1-19 Rocket 4.3 20:34:20 10° N 20:40:12 86° W 20:45:57 10° S
Meteor 1-5 Rocket 4.0 20:38:00 10° S 20:43:16 64° E 20:48:30 10° NNE
Cosmos 614 Rocket 4.5 20:38:50 10° NNW 20:43:53 60° WSW 20:48:57 10° S
Cosmos 1300 Rocket 3.6 20:43:18 10° S 20:47:35 77° W 20:51:55 10° N
Cosmos 1536 3.0 20:44:31 10° S 20:48:34 74° W 20:52:38 10° N
USA 186 1.9 20:45:50 14° S 20:48:39 80° W 20:52:02 10° NNW
Cosmos 1025 Rocket 3.8 20:46:06 10° NNE 20:49:53 30° E 20:50:37 28° E
Cosmos 1607 4.1 20:44:00 10° NNW 20:50:24 61° ENE 20:54:25 24° SE
Okean 1 Rocket 2.9 20:46:22 10° S 20:50:41 73° E 20:55:03 10° N
CZ-2D R/B 4.1 20:47:21 10° S 20:51:07 51° W 20:54:52 10° NNW
Lacrosse 5 rocket 3.7 20:48:56 10° W 20:51:20 16° WSW 20:53:47 10° SSW
Cosmos 1939 Rocket 3.0 20:51:36 30° SE 20:53:10 50° ENE 20:56:59 10° N
Spot 2 Rocket 3.6 20:49:30 10° S 20:54:36 79° WSW 20:59:43 10° NNW
Tiangong 1 1.1 20:55:13 10° NW 20:57:56 52° NNE 20:58:00 51° NNE
Meteor 2-4 Rocket 3.8 20:53:26 10° N 20:59:05 85° W 21:04:53 10° S
Helios 1A 3.6 21:01:07 36° E 21:01:45 38° ENE 21:05:41 10° N
Cosmos 1818 3.6 20:59:55 10° S 21:05:09 53° ESE 21:10:26 10° NE
ERS-1 Rocket 4.0 21:06:57 27° ENE 21:07:18 27° ENE 21:11:30 10° NNE
ATLAS 3B R/B 3.1 21:01:15 10° NNW 21:07:34 43° NE 21:09:58 31° E
YAOGAN 6 2.6 21:10:08 55° ENE 21:10:08 55° ENE 21:13:29 10° N
CZ-4B DEB 4.4 21:11:51 64° SSE 21:12:21 89° ENE 21:15:52 10° N
ARGOS 4.4 21:12:31 24° ENE 21:12:33 24° ENE 21:16:43 10° NNE
ASTRO E2 3.4 21:11:00 10° SW 21:14:09 37° S 21:14:09 37° S
USA 267 3.5 21:10:52 24° SSE 21:14:57 65° SW 21:21:29 10° NW
Okean 1-7 Rocket 3.6 21:11:49 10° N 21:16:18 62° E 21:16:59 54° SE
Cosmos 2266 Rocket 4.5 21:11:09 10° SSW 21:17:04 58° W 21:23:02 10° N
Resurs 01 Rocket 3.2 21:13:14 10° SSW 21:17:14 33° W 21:21:16 10° NNW
Abrixas 4.3 21:17:24 10° W 21:19:36 24° NNW 21:19:46 24° NNW
Envisat 3.8 21:19:54 14° S 21:24:06 50° W 21:29:01 10° NNW
SPOT 5 4.4 21:31:51 21° NE 21:31:51 21° NE 21:34:14 10° NNE
Cosmos 2263 Rocket 3.0 21:25:23 10° NNW 21:30:49 47° WSW 21:34:06 23° SSW
Aureole 3 Rocket 4.2 21:24:02 10° N 21:31:09 45° ENE 21:31:40 44° E
Cosmos 1844 Rocket 3.5 21:31:49 10° N 21:36:49 36° ENE 21:36:49 36° ENE
Cosmos 2315 Rocket 4.0 21:30:51 10° N 21:37:08 83° W 21:39:59 35° S
MetOp-B 4.4 21:37:45 48° ENE 21:37:45 48° ENE 21:42:41 10° N
Cosmos 2278 Rocket 4.2 21:35:51 10° NNE 21:38:10 14° NE 21:38:10 14° NE
Spot 1 4.4 21:40:52 69° S 21:41:31 88° WSW 21:46:36 10° NNW
Atlas Centaur 2 3.4 21:35:45 10° W 21:43:25 41° SSW 21:45:00 37° S
Helios 1B rocket 3.2 21:39:29 10° N 21:43:28 51° WNW 21:44:31 40° WSW
H-2A R/B 3.4 21:46:54 25° NE 21:46:54 25° NE 21:49:40 10° N
Cosmos 1302 Rocket 4.3 21:40:47 10° SSW 21:46:01 66° WNW 21:51:16 10° N
Cosmos 2219 Rocket 2.6 21:50:02 47° NE 21:50:02 47° NE 21:54:11 10° NNE
Cosmos 1745 Rocket 4.2 21:50:53 51° ENE 21:50:53 51° ENE 21:56:05 10° NNE
Cosmos 1486 Rocket 4.2 21:51:36 10° NNW 21:56:04 61° NNE 21:56:04 61° NNE
NOSS 3-4 (A) 3.3 21:51:41 10° SSW 21:57:56 81° ESE 22:04:20 10° NNE
NOSS 3-4 (C) 3.3 21:51:47 10° SSW 21:58:02 80° ESE 22:04:26 10° NNE
Terra 4.3 22:04:46 12° NNE 22:04:46 12° NNE 22:05:19 10° NNE
COSMOS 2428 3.8 22:08:50 10° SW 22:14:14 43° WNW 22:19:41 10° N
Cosmos 1844 4.4 22:16:34 10° NNW 22:20:44 48° N 22:20:44 48° N
Cosmos 2333 Rocket 3.3 22:29:06 38° N 22:29:06 38° N 22:32:35 10° NNE
Cosmos 2237 Rocket 4.1 22:42:11 21° NNE 22:42:11 21° NNE 22:43:58 10° NNE
NOSS 3-2 (A) 4.0 22:37:58 10° NNW 22:45:10 79° NNW 22:45:10 79° NNW
USA 238 4.5 22:42:21 10° NW 22:48:36 44° WSW 22:48:36 44° WSW
ATLAS 3B R/B 4.0 22:52:26 10° NW 22:57:14 28° W 22:57:14 28° W
Cosmos 2278 Rocket 4.1 23:17:43 10° NNW 23:20:01 25° NNW 23:20:01 25° NNW
CENTAUR R/B 3.8 23:38:13 10° NNW 23:43:45 47° N 23:43:45 47° N
